Location: *
(49.1894°S, 172.5850°W)
Time: 12:28:43
(UTC+00:00)

Daily predictions for brighter satellites

Satellite Brightness Start Highest point End
(mag) Time Altitude Azimuth Time Altitude Azimuth Time Altitude Azimuth
Cosmos 2263 Rocket 4.4 15:07:39 21° SE 15:07:39 21° SE 15:11:37 10° E
CZ-4C R/B 3.7 15:35:02 37° SSE 15:35:02 37° SSE 15:38:57 10° SE
USA 229 DEB 4.2 15:35:51 53° ENE 15:35:51 53° ENE 15:40:46 10° NE
USA 229 4.2 15:35:56 53° ENE 15:35:56 53° ENE 15:40:53 10° NE
Cosmos 1980 Rocket 4.1 15:32:43 20° NE 15:35:06 26° ENE 15:39:44 10° SE
BREEZE-M R/B 4.4 15:38:52 70° E 15:38:52 70° E 15:48:50 10° E
Okean O Rocket 3.9 15:35:00 10° ENE 15:37:18 23° E 15:37:18 23° E
NOSS 3-1 (A) 3.9 15:47:29 56° E 15:47:29 56° E 15:52:01 10° NE
Cosmos 1697 Rocket 3.0 16:02:53 62° ESE 16:02:53 62° ESE 16:07:45 10° SSE
USA 234 3.4 15:55:36 10° E 16:02:06 62° SSE 16:02:51 58° S
ATLAS 2AS CENTAUR R/B 4.1 16:04:40 22° S 16:04:41 22° S 16:09:40 10° SE
SMAP 4.5 16:01:15 10° NE 16:05:31 36° ESE 16:07:02 29° SSE
Cosmos 1092 Rocket 4.4 15:59:40 10° N 16:05:47 61° E 16:11:56 10° SSE
CZ-4B R/B 3.6 16:04:55 10° NNE 16:10:26 62° ESE 16:12:45 36° S
Cosmos 1953 3.9 16:14:22 34° ENE 16:14:22 34° ENE 16:17:22 10° NE
Lacrosse 5 rocket 3.4 16:16:12 21° SE 16:16:12 21° SE 16:17:46 10° SE
Cosmos 1937 Rocket 3.7 16:15:37 68° E 16:15:37 68° E 16:20:34 10° NNE
Radarsat Rocket 4.3 16:08:26 10° NNE 16:15:38 77° ESE 16:20:01 23° SSW
Nadezhda 4 Rocket 4.1 16:19:04 59° SSW 16:19:04 59° SSW 16:24:11 10° S
Cosmos 1025 Rocket 3.8 16:23:13 50° ESE 16:23:13 50° ESE 16:27:00 10° SSE
YAOGAN 6 4.4 16:20:08 10° NE 16:22:42 31° E 16:22:42 31° E
SJ 16-02 3.9 16:30:57 11° N 16:30:57 11° N 16:31:05 10° N
NOAA 6 4.4 16:26:49 10° N 16:30:45 52° N 16:30:45 52° N
Cosmos 2227 4.4 16:30:35 40° S 16:32:35 67° ESE 16:38:14 10° NE
H-2A R/B 4.5 16:28:29 10° S 16:29:09 14° S 16:29:09 14° S
Cosmos 2360 4.1 16:33:53 55° NNW 16:35:14 88° WSW 16:41:03 10° SSE
ATLAS CENTAUR R/B 3.6 16:35:12 19° S 16:36:36 21° SSE 16:40:19 10° ESE
Meteor 1-21 4.1 16:35:57 62° NW 16:36:45 72° WSW 16:42:33 10° S
Cosmos 1726 3.5 16:43:50 32° NNE 16:43:50 32° NNE 16:45:58 10° NNE
Cosmos 1536 Rocket 3.7 16:39:24 10° N 16:43:45 72° E 16:48:11 10° SSE
NOSS 2-3 (E) 4.5 16:48:22 50° W 16:49:30 57° WNW 16:54:52 10° NNE
Cosmos 1674 4.3 16:46:58 10° NNE 16:50:27 36° E 16:54:00 10° SSE
Cosmos 2263 Rocket 2.2 16:49:22 31° SSW 16:52:15 81° ESE 16:57:58 10° NNE
Cosmos 1553 Rocket 4.2 16:46:14 10° S 16:52:46 77° E 16:59:10 10° NNE
Cosmos 1627 Rocket 4.4 16:47:42 10° NNW 16:53:57 79° W 17:00:24 10° S
Helios 1A Rocket 3.7 16:50:39 10° NE 16:54:38 51° ESE 16:57:51 16° S
Envisat 2.9 16:52:27 10° N 16:57:35 78° WNW 17:01:07 21° SSW
NOAA 12 4.1 16:54:35 10° NNE 16:59:52 87° ESE 17:05:14 10° SSW
Cosmos 1461 3.4 17:03:00 40° NNW 17:03:00 40° NNW 17:05:55 10° NNE
In-Cosmos 22 4.1 16:58:39 10° N 17:04:11 83° E 17:09:39 10° SSE
NOSS 3-1 (C) 4.3 17:06:26 27° NW 17:06:26 27° NW 17:10:08 10° N
S3M 4.2 16:59:51 10° S 17:06:04 71° E 17:12:13 10° NNE
Cosmos 2285 Rocket 4.1 17:02:17 13° SSW 17:08:08 84° ESE 17:14:38 10° NNE
Meteor 2-10 4.1 17:06:37 38° SW 17:08:12 51° W 17:13:09 10° N
USA 267 3.4 17:02:03 10° ESE 17:08:42 78° NE 17:14:37 14° NW
ATLAS 5 CENTAUR R/B 4.2 17:02:51 10° N 17:09:18 37° ENE 17:15:19 10° SE
Cosmos 1437 3.7 17:06:54 10° N 17:09:50 44° E 17:12:48 10° SSE
Cosmos 2208 Rocket 4.1 17:05:46 10° NNW 17:10:57 75° ENE 17:16:13 10° SSE
Cosmos 1814 Rocket 4.2 17:07:57 10° NNW 17:13:15 74° ENE 17:18:41 10° SSE
Okean O Rocket 2.1 17:10:44 10° NNW 17:14:45 40° WNW 17:14:45 40° WNW
H-2A R/B 4.4 17:12:36 10° E 17:16:04 19° ESE 17:19:35 10° SSE
Cosmos 1980 Rocket 2.2 17:14:37 18° NW 17:18:44 59° WSW 17:24:21 10° SSE
Cosmos 1763 Rocket 3.6 17:15:53 24° NW 17:18:55 51° WSW 17:24:06 10° SSE
CORIOLIS 4.1 17:14:43 10° N 17:20:07 65° WNW 17:25:35 10° SSW
Cosmos 2369 4.2 17:20:46 32° W 17:22:18 38° SW 17:27:39 10° SSE
CZ-4C R/B 3.8 17:20:12 22° SW 17:22:24 26° SSW 17:27:30 10° SE
ARGOS Delta rocket 3.7 17:17:44 10° N 17:22:43 80° W 17:27:29 10° SSW
USA 229 DEB 4.5 17:23:20 26° W 17:24:27 28° WNW 17:29:50 10° NNW
USA 229 4.5 17:23:25 26° W 17:24:35 28° WNW 17:29:58 10° NNW
Cosmos 1726 Rocket 4.0 17:20:49 10° S 17:25:13 62° ESE 17:29:32 10° NNE
Cosmos 1844 Rocket 3.8 17:23:25 10° SSW 17:28:52 42° SE 17:34:15 10° ENE
Feng Yun 1-1 Rocket 4.2 17:27:12 10° N 17:32:42 69° WNW 17:38:25 10° SSW
PSLV R/B 4.0 17:30:34 10° SSE 17:34:47 84° ENE 17:38:59 10° NNW
KORONAS-FOTON 3.7 17:32:43 10° NNW 17:36:33 73° W 17:40:28 10° S
NOSS 3-1 (A) 4.2 17:34:58 24° W 17:36:35 27° WNW 17:41:11 10° N
Aureole 3 Rocket 3.6 17:36:45 30° W 17:36:58 30° W 17:40:54 10° NNW
Cosmos 2026 Rocket 4.3 17:32:23 10° NW 17:38:12 42° WSW 17:44:11 10° S
Cosmos 1939 Rocket 3.1 17:36:41 10° NNE 17:40:46 73° ESE 17:44:58 10° S
Cosmos 1570 Rocket 4.1 17:36:23 10° NW 17:41:40 56° WSW 17:47:03 10° SSE
Cosmos 540 Rocket 3.5 17:36:39 10° NW 17:41:48 60° WSW 17:47:01 10° SSE
Cosmos 2278 4.2 17:38:08 17° WNW 17:42:00 38° SW 17:47:20 10° SSE
Cosmos 1689 Rocket 2.5 17:39:18 10° S 17:42:14 41° WSW 17:45:08 10° NW
SMAP 3.8 17:38:43 10° NNW 17:42:54 32° W 17:45:30 19° SW
SL-16 R/B 2.4 17:37:47 10° NNW 17:43:28 76° ENE 17:49:13 10° SSE
CZ-4 R/B 1.8 17:39:49 10° NNE 17:44:01 68° ESE 17:48:19 10° S
FengYun 1-2 T 4.3 17:39:33 10° N 17:45:06 62° WNW 17:50:46 10° SSW
USA 234 3.4 17:38:36 10° NE 17:45:07 62° NW 17:50:12 18° WSW
Cosmos 1626 2.7 17:42:50 10° N 17:46:33 61° E 17:50:19 10° SSE
Cosmos 1697 Rocket 3.7 17:44:40 22° WSW 17:46:35 26° SW 17:51:21 10° SSE
Cosmos 841 Rocket 3.6 17:42:44 10° NW 17:47:56 53° WSW 17:53:11 10° SSE
Cosmos 2228 3.0 17:44:26 10° SSW 17:48:45 62° W 17:52:58 10° N
Cosmos 372 Rocket 4.3 17:45:25 16° SW 17:49:11 43° WNW 17:54:00 10° N
Cosmos 2278 Rocket 4.3 17:45:30 10° S 17:49:36 20° SE 17:53:41 10° E
Okean-O 2.6 17:45:10 10° NNE 17:49:40 82° WNW 17:54:13 10° SSW
Cosmos 1953 3.6 17:50:07 21° W 17:50:07 21° W 17:52:48 10° NW
CZ-4B R/B 4.3 17:46:58 10° NW 17:51:25 24° W 17:54:39 15° SW
SL-14 R/B 3.7 17:48:51 10° N 17:52:46 67° E 17:56:43 10° SSE
Orbus 7S? 4.0 17:50:10 10° NW 17:53:24 71° NE 18:00:15 10° ESE
Lacrosse 5 rocket 2.6 17:51:51 19° SW 17:53:39 27° S 17:57:16 10° SE
Cosmos 1908 3.8 17:52:24 15° SSW 17:55:15 35° W 17:58:47 10° NNW
CZ-2D R/B 3.3 17:51:50 10° NNE 17:55:45 87° ESE 17:59:46 10° SSW
Cosmos 2150 Rocket 4.2 17:51:01 10° SSW 17:56:20 55° WNW 18:01:31 10° N
Cosmos 1125 Rocket 3.5 17:51:36 10° SSW 17:56:57 80° WNW 18:02:12 10° NNE
YAOGAN 6 3.9 17:54:17 10° NW 17:57:00 20° W 17:57:04 20° W
ATLAS 2AS CENTAUR R/B 3.9 17:52:05 11° SW 17:57:34 31° SSE 18:03:33 10° E
Cosmos 2098 Rocket 4.1 17:51:52 10° N 17:57:39 87° E 18:04:44 10° S
Meteor 2-19 Rocket 4.4 17:52:04 10° NNW 17:58:16 71° WSW 18:04:32 10° S
Meteor 2-15 4.5 17:53:32 10° SSW 17:59:43 65° W 18:05:49 10° N
Cosmos 1300 2.7 17:56:36 10° S 18:00:32 88° ESE 18:04:24 10° N
Cosmos 1025 Rocket 4.4 18:00:15 18° WSW 18:00:42 18° WSW 18:03:47 10° SSW
SL-24 R/B 4.2 18:02:21 10° NNE 18:06:42 89° NW 18:11:21 10° SSW
COSMO-SKYMED 1 2.6 18:03:13 10° S 18:07:38 66° WSW 18:11:59 10° NNW
Meteor 1-24 Rocket 3.6 18:02:50 10° N 18:08:14 90° W 18:13:40 10° SSE
ASTEX 1 3.9 18:03:40 10° NNW 18:08:17 39° W 18:12:58 10° SSW
ADEOS Rocket 2.9 18:04:25 10° S 18:09:50 53° WSW 18:15:16 10° NW
Cosmos 1818 3.8 18:04:42 10° NNW 18:10:06 78° NE 18:15:34 10° SE
Cosmos 1892 Rocket 3.5 18:06:18 10° NNW 18:10:48 73° WSW 18:15:18 10° S
Cosmos 1455 4.3 18:10:43 10° SSE 18:14:03 27° ESE 18:17:20 10° NE
Cosmos 1655 Rocket 4.2 18:08:50 10° NNW 18:14:53 49° WSW 18:21:01 10° S
ATLAS CENTAUR R/B 2.0 18:11:29 10° SW 18:16:20 73° SE 18:21:12 10° NE
YAOGAN 1 2.6 18:15:59 10° N 18:20:19 64° WNW 18:24:44 10° SSW
Cosmos 1356 Rocket 3.7 18:16:56 10° SSW 18:20:57 47° W 18:25:01 10° N
Cosmos 2266 Rocket 4.1 18:15:33 10° NNW 18:21:45 57° WSW 18:27:55 10° S
Cosmos 1626 Rocket 4.5 18:17:50 10° N 18:22:05 54° E 18:26:24 10° SSE
Meteor 2-5 Rocket 3.8 18:18:05 10° NNW 18:23:34 55° WSW 18:29:06 10° S
Cosmos 2322 Rocket 2.2 18:17:51 10° NW 18:23:35 70° WSW 18:29:21 10° SSE
Cosmos 1674 4.0 18:23:13 10° WNW 18:26:06 20° WSW 18:29:03 10° SSW
USA 186 3.5 18:25:05 10° NE 18:27:20 26° ESE 18:29:45 10° S
Cosmos 2058 Rocket 3.3 18:23:21 10° SSW 18:27:41 49° W 18:31:59 10° NNW
Helios 1A Rocket 4.5 18:27:15 10° NW 18:30:06 18° W 18:33:00 10° SW
Cosmos 2315 Rocket 4.2 18:29:01 10° SSW 18:35:08 53° W 18:41:10 10° NNW
Cosmos 2263 Rocket 3.6 18:31:36 10° WSW 18:35:28 19° W 18:39:18 10° NW
ARGOS 3.6 18:33:47 10° NNE 18:39:08 68° ESE 18:44:34 10° S
Meteor 2-1 Rocket 4.3 18:33:44 10° S 18:39:25 85° ESE 18:44:59 10° NNE
USA 116 3.2 18:37:17 10° S 18:40:26 60° WSW 18:43:40 10° NNW
Cosmos 2219 Rocket 3.8 18:40:43 10° N 18:46:01 41° ENE 18:51:21 10° SE
